H1 CPF 2 NER 2024 9 29 9 273 01 glonass140 H2 1903001 9140 44299 2024 9 29 0 0 0 2024 10 2 23 45 0 900 1 1 0 0 0 1 H9 10 0 60582 0.00000 0 -23502041.150 -8839280.399 -4432912.847 10 0 60582 900.00000 0 -23879339.291 -8860349.313 -1251308.341 10 0 60582 1800.00000 0 -23886734.817 -8721748.735 1954631.090 10 0 60582 2700.00000 0 -23506724.497 -8475420.673 5122584.235 10 0 60582 3600.00000 0 -22734715.584 -8176393.207 8191019.232 10 0 60582 4500.00000 0 -21579319.270 -7880226.514 11100390.218 10 0 60582 5400.00000 0 -20062107.253 -7640449.325 13794290.898 10 0 60582 6300.00000 0 -18216842.460 -7506094.642 16220542.722 10 0 60582 7200.00000 0 -16088216.957 -7519438.840 18332197.014 10 0 60582 8100.00000 0 -13730150.370 -7714039.174 20088432.552 10 0 60582 9000.00000 0 -11203720.023 -8113151.778 21455332.392 10 0 60582 9900.00000 0 -8574808.893 -8728595.990 22406526.302 10 0 60582 10800.00000 0 -5911568.495 -9560112.108 22923687.829 10 0 60582 11700.00000 0 -3281800.997 -10595239.055 22996877.758 10 0 60582 12600.00000 0 -750367.716 -11809717.042 22624728.411 10 0 60582 13500.00000 0 1623270.294 -13168398.649 21814466.019 10 0 60582 14400.00000 0 3787279.484 -14626631.002 20581771.019 10 0 60582 15300.00000 0 5699358.344 -16132052.292 18950478.897 10 0 60582 16200.00000 0 7328241.895 -17626728.911 16952126.740 10 0 60582 17100.00000 0 8654745.079 -19049545.280 14625353.389 10 0 60582 18000.00000 0 9672302.712 -20338747.751 12015163.592 10 0 60582 18900.00000 0 10386984.244 -21434537.299 9172069.142 10 0 60582 19800.00000 0 10816983.171 -22281603.141 6151122.310 10 0 60582 20700.00000 0 10991602.607 -22831491.428 3010859.202 10 0 60582 21600.00000 0 10949779.559 -23044709.407 -187827.378 10 0 60582 22500.00000 0 10738209.867 -22892476.052 -3382864.333 10 0 60582 23400.00000 0 10409152.665 -22358044.459 -6512201.306 10 0 60582 24300.00000 0 10018007.051 -21437538.967 -9515016.988 10 0 60582 25200.00000 0 9620763.467 -20140270.081 -12332904.926 10 0 60582 26100.00000 0 9271438.013 -18488512.189 -14911015.235 10 0 60582 27000.00000 0 9019598.843 -16516751.573 -17199129.351 10 0 60582 27900.00000 0 8908090.202 -14270434.653 -19152646.247 10 0 60582 28800.00000 0 8971051.460 -11804267.517 -20733460.133 10 0 60582 29700.00000 0 9232316.156 -9180136.822 -21910711.931 10 0 60582 30600.00000 0 9704260.013 -6464738.185 -22661399.287 10 0 60582 31500.00000 0 10387147.925 -3727010.677 -22970832.665 10 0 60582 32400.00000 0 11269008.694 -1035484.239 -22832928.215 10 0 60582 33300.00000 0 12326043.931 1544349.426 -22250331.272 10 0 60582 34200.00000 0 13523554.733 3952532.796 -21234367.760 10 0 60582 35100.00000 0 14817347.661 6136901.250 -19804824.185 10 0 60582 36000.00000 0 16155561.090 8055010.493 -17989560.338 10 0 60582 36900.00000 0 17480834.885 9675652.542 -15823962.261 10 0 60582 37800.00000 0 18732731.654 10979897.657 -13350246.309 10 0 60582 38700.00000 0 19850306.940 11961619.640 -10616628.224 10 0 60582 39600.00000 0 20774719.259 12627483.949 -7676374.052 10 0 60582 40500.00000 0 21451769.150 12996400.918 -4586752.189 10 0 60582 41400.00000 0 21834259.468 13098469.150 -1407907.932 10 0 60582 42300.00000 0 21884076.824 12973455.768 1798316.472 10 0 60582 43200.00000 0 21573906.174 12668879.819 4969592.255 10 0 60582 44100.00000 0 20888506.273 12237781.735 8044320.624 10 0 60582 45000.00000 0 19825492.589 11736274.753 10962830.910 10 0 60582 45900.00000 0 18395595.240 11220982.993 13668536.803 10 0 60582 46800.00000 0 16622381.704 10746475.118 16109028.262 10 0 60582 47700.00000 0 14541456.533 10362802.126 18237078.359 10 0 60582 48600.00000 0 12199172.010 10113242.855 20011546.430 10 0 60582 49500.00000 0 9650903.739 10032351.526 21398161.209 10 0 60582 50400.00000 0 6958962.876 10144388.598 22370170.171 10 0 60582 51300.00000 0 4190231.254 10462199.944 22908843.964 10 0 60582 52200.00000 0 1413616.581 10986590.538 23003827.559 10 0 60582 53100.00000 0 -1302568.090 11706218.352 22653332.446 10 0 60582 54000.00000 0 -3893193.696 12598012.687 21864166.937 10 0 60582 54900.00000 0 -6298767.872 13628099.621 20651604.361 10 0 60582 55800.00000 0 -8467651.226 14753196.478 19039091.568 10 0 60582 56700.00000 0 -10357947.040 15922417.880 17057802.864 10 0 60582 57600.00000 0 -11938987.504 17079418.973 14746047.057 10 0 60582 58500.00000 0 -13192355.845 18164787.253 12148537.950 10 0 60582 59400.00000 0 -14112402.684 19118583.895 9315541.104 10 0 60582 60300.00000 0 -14706235.570 19882928.824 6301912.079 10 0 60582 61200.00000 0 -14993182.312 20404521.473 3166043.683 10 0 60582 62100.00000 0 -15003750.600 20636991.307 -31258.285 10 0 60582 63000.00000 0 -14778127.448 20542978.763 -3227949.625 10 0 60582 63900.00000 0 -14364281.390 20095858.087 -6361950.076 10 0 60582 64800.00000 0 -13815747.301 19281028.137 -9372350.048 10 0 60582 65700.00000 0 -13189187.287 18096715.116 -12200597.999 10 0 60582 66600.00000 0 -12541830.887 16554251.534 -14791644.814 10 0 60582 67500.00000 0 -11928903.128 14677817.672 -17095022.308 10 0 60582 68400.00000 0 -11401149.772 12503654.449 -19065834.167 10 0 60582 69300.00000 0 -11002565.153 10078778.956 -20665639.327 10 0 60582 70200.00000 0 -10768419.546 7459254.935 -21863209.912 10 0 60582 71100.00000 0 -10723670.404 4708089.336 -22635148.400 10 0 60582 72000.00000 0 -10881825.574 1892842.036 -22966351.428 10 0 60582 72900.00000 0 -11244307.434 -916952.106 -22850310.749 10 0 60582 73800.00000 0 -11800345.612 -3652441.602 -22289245.068 10 0 60582 74700.00000 0 -12527403.451 -6248086.344 -21294059.860 10 0 60582 75600.00000 0 -13392120.649 -8644145.742 -19884135.673 10 0 60582 76500.00000 0 -14351732.427 -10788923.282 -18086948.895 10 0 60582 77400.00000 0 -15355905.217 -12640674.017 -15937532.357 10 0 60582 78300.00000 0 -16348910.950 -14169095.715 -13477786.444 10 0 60582 79200.00000 0 -17272047.519 -15356342.119 -10755654.464 10 0 60582 80100.00000 0 -18066202.367 -16197516.940 -7824178.982 10 0 60582 81000.00000 0 -18674449.997 -16700629.390 -4740458.277 10 0 60582 81900.00000 0 -19044572.845 -16886014.956 -1564524.172 10 0 60582 82800.00000 0 -19131398.216 -16785247.804 1641835.778 10 0 60582 83700.00000 0 -18898852.104 -16439592.799 4816287.821 10 0 60582 84600.00000 0 -18321642.913 -15898064.488 7897168.783 10 0 60582 85500.00000 0 -17386504.078 -15215176.773 10824685.718 10 0 60583 0.00000 0 -16092943.621 -14448479.780 13542074.514 10 0 60583 900.00000 0 -14453468.723 -13655988.427 15996696.434 10 0 60583 1800.00000 0 -12493278.116 -12893612.595 18141048.136 10 0 60583 2700.00000 0 -10249433.239 -12212695.721 19933671.324 10 0 60583 3600.00000 0 -7769544.509 -11657765.852 21339941.875 10 0 60583 4500.00000 0 -5110026.751 -11264592.397 22332726.047 10 0 60583 5400.00000 0 -2333995.910 -11058629.105 22892892.259 10 0 60583 6300.00000 0 491106.530 -11053907.421 23009669.948 10 0 60583 7200.00000 0 3296064.120 -11252425.598 22680849.662 10 0 60583 8100.00000 0 6012506.951 -11644058.380 21912821.349 10 0 60583 9000.00000 0 8575497.263 -12206990.718 20720450.459 10 0 60583 9900.00000 0 10925973.857 -12908657.394 19126794.161 10 0 60583 10800.00000 0 13012955.782 -13707149.681 17162662.642 10 0 60583 11700.00000 0 14795415.405 -14553030.886 14866033.063 10 0 60583 12600.00000 0 16243744.309 -15391485.621 12281326.376 10 0 60583 13500.00000 0 17340751.890 -16164713.607 9458559.696 10 0 60583 14400.00000 0 18082155.605 -16814468.372 6452389.378 10 0 60583 15300.00000 0 18476542.556 -17284634.647 3321062.182 10 0 60583 16200.00000 0 18544803.989 -17523736.247 125293.956 10 0 60583 17100.00000 0 18319066.192 -17487268.532 -3072903.045 10 0 60583 18000.00000 0 17841162.423 -17139756.408 -6211421.721 10 0 60583 18900.00000 0 17160709.880 -16456449.907 -9229267.196 10 0 60583 19800.00000 0 16332872.564 -15424584.263 -12067745.682 10 0 60583 20700.00000 0 15415904.375 -14044149.483 -14671611.481 10 0 60583 21600.00000 0 14468576.273 -12328134.912 -16990149.171 10 0 60583 22500.00000 0 13547596.502 -10302236.368 -18978169.262 10 0 60583 23400.00000 0 12705133.274 -8004036.117 -20596897.183 10 0 60583 24300.00000 0 11986545.201 -5481688.182 -21814737.658 10 0 60583 25200.00000 0 11428415.923 -2792162.493 -22607898.996 10 0 60583 26100.00000 0 11056976.647 879.939 -22960864.560 10 0 60583 27000.00000 0 10886983.769 2829492.963 -22866701.825 10 0 60583 27900.00000 0 10921099.515 5624032.512 -22327202.550 10 0 60583 28800.00000 0 11149802.082 8315817.451 -21352851.023 10 0 60583 29700.00000 0 11551829.250 10839753.218 -19962620.705 10 0 60583 30600.00000 0 12095136.682 13136808.839 -18183603.091 10 0 60583 31500.00000 0 12738330.092 15156243.960 -16050475.959 10 0 60583 32400.00000 0 13432510.241 16857493.080 -13604821.538 10 0 60583 33300.00000 0 14123451.984 18211628.644 -10894308.213 10 0 60583 34200.00000 0 14754024.261 19202342.474 -7971752.282 10 0 60583 35100.00000 0 15266747.658 19826405.535 -4894078.865 10 0 60583 36000.00000 0 15606380.283 20093588.238 -1721203.105 10 0 60583 36900.00000 0 15722421.626 20026046.396 1485145.445 10 0 60583 37800.00000 0 15571427.756 19657200.678 4662631.331 10 0 60583 38700.00000 0 15119039.479 19030158.772 7749530.180 10 0 60583 39600.00000 0 14341637.559 18195748.665 10685929.730 10 0 60583 40500.00000 0 13227555.200 17210247.542 13414891.220 10 0 60583 41400.00000 0 11777796.895 16132903.213 15883548.603 10 0 60583 42300.00000 0 10006233.699 15023353.144 18044124.645 10 0 60583 43200.00000 0 7939266.984 13939049.800 19854845.061 10 0 60583 44100.00000 0 5614974.804 12932800.152 21280734.137 10 0 60583 45000.00000 0 3081776.361 12050521.773 22294277.785 10 0 60583 45900.00000 0 396669.711 11329308.447 22875942.656 10 0 60583 46800.00000 0 -2376884.893 10795884.980 23014542.665 10 0 60583 47700.00000 0 -5171349.350 10465514.534 22707446.967 10 0 60583 48600.00000 0 -7917662.392 10341403.036 21960626.213 10 0 60583 49500.00000 0 -10547860.482 10414624.644 20788536.543 10 0 60583 50400.00000 0 -12997658.100 10664570.948 19213843.543 10 0 60583 51300.00000 0 -15208882.218 11059904.945 17266990.945 10 0 60583 52200.00000 0 -17131661.583 11559980.190 14985621.576 10 0 60583 53100.00000 0 -18726281.099 12116666.144 12413860.580 10 0 60583 54000.00000 0 -19964625.141 12676503.889 9601473.539 10 0 60583 54900.00000 0 -20831150.190 13183102.369 6602914.455 10 0 60583 55800.00000 0 -21323346.351 13579674.929 3476280.945 10 0 60583 56700.00000 0 -21451668.338 13811609.643 282195.930 10 0 60583 57600.00000 0 -21238938.479 13828965.015 -2917363.113 10 0 60583 58500.00000 0 -20719246.327 13588785.224 -6060264.894 10 0 60583 59400.00000 0 -19936390.683 13057136.230 -9085431.707 10 0 60583 60300.00000 0 -18941929.163 12210775.374 -11934029.766 10 0 60583 61200.00000 0 -17792917.257 11038382.273 -14550618.779 10 0 60583 62100.00000 0 -16549432.031 9541297.051 -16884237.802 10 0 60583 63000.00000 0 -15271985.013 7733732.627 -18889405.546 10 0 60583 63900.00000 0 -14018933.588 5642449.945 -20527014.961 10 0 60583 64800.00000 0 -12844000.424 3305907.678 -21765104.027 10 0 60583 65700.00000 0 -11794005.961 772920.164 -22579487.152 10 0 60583 66600.00000 0 -10906910.007 -1899121.747 -22954234.334 10 0 60583 67500.00000 0 -10210245.377 -4646393.821 -22881988.311 10 0 60583 68400.00000 0 -9720009.896 -7401056.832 -22364113.090 10 0 60583 69300.00000 0 -9440063.615 -10093849.778 -21410670.634 10 0 60583 70200.00000 0 -9362056.577 -12656749.932 -20040225.871 10 0 60583 71100.00000 0 -9465889.894 -15025588.768 -18279483.670 10 0 60583 72000.00000 0 -9720690.121 -17142514.473 -16162764.789 10 0 60583 72900.00000 0 -10086254.992 -18958198.154 -13731331.169 10 0 60583 73800.00000 0 -10514908.440 -20433691.633 -11032574.003 10 0 60583 74700.00000 0 -10953685.258 -21541859.415 -8119081.005 10 0 60583 75600.00000 0 -11346751.731 -22268325.557 -5047601.809 10 0 60583 76500.00000 0 -11637958.510 -22611896.764 -1877932.559 10 0 60583 77400.00000 0 -11773416.453 -22584445.379 1328257.477 10 0 60583 78300.00000 0 -11703985.419 -22210258.885 4508633.413 10 0 60583 79200.00000 0 -11387569.934 -21524885.146 7601411.928 10 0 60583 80100.00000 0 -10791124.202 -20573523.835 10546563.676 10 0 60583 81000.00000 0 -9892281.587 -19409033.491 13286977.206 10 0 60583 81900.00000 0 -8680539.871 -18089639.370 15769561.751 10 0 60583 82800.00000 0 -7157952.568 -16676439.452 17946267.886 10 0 60583 83700.00000 0 -5339297.440 -15230813.718 19775007.084 10 0 60583 84600.00000 0 -3251715.216 -13811845.248 21220453.516 10 0 60583 85500.00000 0 -933833.534 -12473860.536 22254713.909 10 0 60584 0.00000 0 1565587.577 -11264190.976 22857853.927 10 0 60584 900.00000 0 4189434.392 -10221247.081 23018272.532 10 0 60584 1800.00000 0 6874366.187 -9372985.974 22732917.527 10 0 60584 2700.00000 0 9553207.505 -8735832.484 22007340.038 10 0 60584 3600.00000 0 12157505.159 -8314099.250 20855586.369 10 0 60584 4500.00000 0 14620146.966 -8099928.392 19299929.686 10 0 60584 5400.00000 0 16877935.136 -8073756.664 17370446.151 10 0 60584 6300.00000 0 18874009.135 -8205284.432 15104442.836 10 0 60584 7200.00000 0 20560018.602 -8454907.989 12545747.358 10 0 60584 8100.00000 0 21897956.925 -8775555.535 9743871.708 10 0 60584 9000.00000 0 22861579.612 -9114850.197 6753065.174 10 0 60584 9900.00000 0 23437348.408 -9417509.607 3631273.550 10 0 60584 10800.00000 0 23624861.488 -9627881.286 439023.909 10 0 60584 11700.00000 0 23436751.271 -9692506.976 -2761744.144 10 0 60584 12600.00000 0 22898053.501 -9562607.342 -5908878.287 10 0 60584 13500.00000 0 22045073.400 -9196381.381 -8941221.096 10 0 60584 14400.00000 0 20923795.927 -8561022.207 -11799801.759 10 0 60584 15300.00000 0 19587906.475 -7634362.518 -14428988.144 10 0 60584 16200.00000 0 18096504.972 -6406078.401 -16777576.260 10 0 60584 17100.00000 0 16511609.424 -4878398.565 -18799795.204 10 0 60584 18000.00000 0 14895554.022 -3066286.942 -20456207.305 10 0 60584 18900.00000 0 13308391.489 -997088.761 -21714485.318 10 0 60584 19800.00000 0 11805409.229 1290347.115 -22550050.917 10 0 60584 20700.00000 0 10434864.086 3747034.585 -22946561.527 10 0 60584 21600.00000 0 9236031.235 6315649.688 -22896235.544 10 0 60584 22500.00000 0 8237649.445 8932688.870 -22400009.208 10 0 60584 23400.00000 0 7456828.109 11530896.617 -21467521.724 10 0 60584 24300.00000 0 6898461.812 14041861.456 -20116928.644 10 0 60584 25200.00000 0 6555176.638 16398671.993 -18374546.960 10 0 60584 26100.00000 0 6407809.724 18538521.907 -16274338.757 10 0 60584 27000.00000 0 6426400.883 20405154.827 -13857243.639 10 0 60584 27900.00000 0 6571653.184 21951046.704 -11170373.190 10 0 60584 28800.00000 0 6796799.401 23139234.303 -8266083.779 10 0 60584 29700.00000 0 7049793.876 23944713.494 -5200946.490 10 0 60584 30600.00000 0 7275735.517 24355349.311 -2034635.176 10 0 60584 31500.00000 0 7419417.909 24372260.568 1171244.620 10 0 60584 32400.00000 0 7427897.283 24009664.204 4354362.060 10 0 60584 33300.00000 0 7252968.619 23294187.462 7452878.272 10 0 60584 34200.00000 0 6853444.397 22263678.534 10406650.069 10 0 60584 35100.00000 0 6197139.288 20965567.283 13158396.284 10 0 60584 36000.00000 0 5262476.871 19454846.398 15654804.103 10 0 60584 36900.00000 0 4039650.727 17791758.769 17847554.220 10 0 60584 37800.00000 0 2531291.262 16039288.722 19694245.803 10 0 60584 38700.00000 0 752610.373 14260562.235 21159204.439 10 0 60584 39600.00000 0 -1268982.119 12516264.442 22214158.781 10 0 60584 40500.00000 0 -3494774.504 10862181.354 22838774.234 10 0 60584 41400.00000 0 -5876124.986 9346967.046 23021034.781 10 0 60584 42300.00000 0 -8356253.036 8010227.848 22757466.706 10 0 60584 43200.00000 0 -10872377.170 6881001.701 22053200.773 10 0 60584 44100.00000 0 -13358111.881 5976694.459 20921872.064 10 0 60584 45000.00000 0 -15746025.901 5302516.130 19385359.421 10 0 60584 45900.00000 0 -17970257.301 4851439.470 17473369.028 10 0 60584 46800.00000 0 -19969078.406 4604682.026 15222869.374 10 0 60584 47700.00000 0 -21687305.212 4532691.099 12677387.378 10 0 60584 48600.00000 0 -23078452.022 4596590.404 9886178.053 10 0 60584 49500.00000 0 -24106542.088 4750027.928 6903282.469 10 0 60584 50400.00000 0 -24747498.790 4941347.634 3786491.121 10 0 60584 51300.00000 0 -24990058.973 5115993.857 596231.845 10 0 60584 52200.00000 0 -24836169.621 5219047.123 -2605596.831 10 0 60584 53100.00000 0 -24300850.414 5197784.171 -5756824.549 10 0 60584 54000.00000 0 -23411527.057 5004153.509 -8796216.926 10 0 60584 54900.00000 0 -22206862.427 4597060.941 -11664668.605 10 0 60584 55800.00000 0 -20735133.885 3944367.165 -14306357.807 10 0 60584 56700.00000 0 -19052224.278 3024511.378 -16669839.353 10 0 60584 57600.00000 0 -17219310.631 1827690.424 -18709054.186 10 0 60584 58500.00000 0 -15300347.459 356541.638 -20384235.043 10 0 60584 59400.00000 0 -13359450.344 -1373701.518 -21662690.007 10 0 60584 60300.00000 0 -11458289.757 -3335589.708 -22519448.079 10 0 60584 61200.00000 0 -9653604.694 -5490359.805 -22937753.685 10 0 60584 62100.00000 0 -7994940.636 -7789322.634 -22909400.000 10 0 60584 63000.00000 0 -6522706.840 -10175679.594 -22434894.205 10 0 60584 63900.00000 0 -5266634.455 -12586693.006 -21523451.105 10 0 60584 64800.00000 0 -4244699.924 -14956119.994 -20192814.928 10 0 60584 65700.00000 0 -3462558.376 -17216808.275 -18468912.601 10 0 60584 66600.00000 0 -2913510.039 -19303345.215 -16385345.185 10 0 60584 67500.00000 0 -2578999.972 -21154649.023 -13982727.479 10 0 60584 68400.00000 0 -2429628.712 -22716393.287 -11307888.959 10 0 60584 69300.00000 0 -2426629.599 -23943162.974 -8412952.157 10 0 60584 70200.00000 0 -2523748.653 -24800251.427 -5354307.181 10 0 60584 71100.00000 0 -2669445.754 -25265023.146 -2191503.259 10 0 60584 72000.00000 0 -2809322.252 -25327785.654 1013920.024 10 0 60584 72900.00000 0 -2888670.708 -24992134.729 4199638.003 10 0 60584 73800.00000 0 -2855037.502 -24274759.696 7303758.305 10 0 60584 74700.00000 0 -2660688.906 -23204718.342 10266025.855 10 0 60584 75600.00000 0 -2264875.694 -21822213.428 13028991.649 10 0 60584 76500.00000 0 -1635800.357 -20176923.495 15539122.574 10 0 60584 77400.00000 0 -752203.903 -18325959.137 17747831.052 10 0 60584 78300.00000 0 395494.370 -16331531.065 19612405.354 10 0 60584 79200.00000 0 1804551.854 -14258427.742 21096823.648 10 0 60584 80100.00000 0 3459779.269 -12171407.719 22172437.396 10 0 60584 81000.00000 0 5333944.204 -10132614.599 22818512.295 10 0 60584 81900.00000 0 7388685.109 -8199121.135 23022617.731 10 0 60584 82800.00000 0 9575898.324 -6420703.127 22780858.362 10 0 60584 83700.00000 0 11839541.477 -4837933.985 22097944.272 10 0 60584 84600.00000 0 14117779.608 -3480677.446 20987098.745 10 0 60584 85500.00000 0 16345386.337 -2367039.568 19469805.462 10 0 60585 0.00000 0 18456301.716 -1502822.286 17575399.757 10 0 60585 900.00000 0 20386243.094 -881499.846 15340509.883 10 0 60585 1800.00000 0 22075258.877 -484719.510 12808360.664 10 0 60585 2700.00000 0 23470123.614 -283303.708 10027948.321 10 0 60585 3600.00000 0 24526472.294 -238712.773 7053103.623 10 0 60585 4500.00000 0 25210586.041 -304906.450 3941459.406 10 0 60585 5400.00000 0 25500754.058 -430526.153 753341.680 10 0 60585 6300.00000 0 25388154.177 -561306.121 -2449394.882 10 0 60585 7200.00000 0 24877214.153 -642611.662 -5604564.761 10 0 60585 8100.00000 0 23985437.411 -621996.948 -8650859.486 10 0 60585 9000.00000 0 22742699.410 -451673.554 -11529041.941 10 0 60585 9900.00000 0 21190043.020 -90784.350 -14183103.309 10 0 60585 10800.00000 0 19378022.537 492614.744 -16561359.604 10 0 60585 11700.00000 0 17364665.048 1319950.561 -18617465.742 10 0 60585 12600.00000 0 15213134.194 2400975.637 -20311326.744 10 0 60585 13500.00000 0 12989193.987 3733109.121 -21609887.630 10 0 60585 14400.00000 0 10758578.871 5301305.437 -22487786.090 10 0 60585 15300.00000 0 8584380.261 7078458.127 -22927854.628 10 0 60585 16200.00000 0 6524559.078 9026323.634 -22921461.965 10 0 60585 17100.00000 0 4629688.488 11096927.702 -22468686.657 10 0 60585 18000.00000 0 2941021.340 13234396.476 -21578319.141 10 0 60585 18900.00000 0 1488963.004 15377136.269 -20267691.945 10 0 60585 19800.00000 0 292013.154 17460271.001 -18562341.119 10 0 60585 20700.00000 0 -643779.886 19418235.154 -16495505.426 10 0 60585 21600.00000 0 -1324830.407 21187413.299 -14107473.158 10 0 60585 22500.00000 0 -1769493.106 22708715.107 -11444789.545 10 0 60585 23400.00000 0 -2007031.053 23929977.332 -8559340.755 10 0 60585 24300.00000 0 -2076119.236 24808091.565 -5507333.050 10 0 60585 25200.00000 0 -2022948.813 25310768.210 -2348187.884 10 0 60585 26100.00000 0 -1899014.174 25417862.680 856624.462 10 0 60585 27000.00000 0 -1758678.225 25122208.534 4044788.946 10 0 60585 27900.00000 0 -1656620.511 24429923.305 7154363.155 10 0 60585 28800.00000 0 -1645277.386 23360175.242 10124983.493 10 0 60585 29700.00000 0 -1772383.374 21944421.944 12899036.313 10 0 60585 30600.00000 0 -2078718.064 20225154.065 15422771.170 10 0 60585 31500.00000 0 -2596153.748 18254197.810 17647334.889 10 0 60585 32400.00000 0 -3346085.942 16090648.040 19529707.173 10 0 60585 33300.00000 0 -4338312.475 13798518.705 21033520.755 10 0 60585 34200.00000 0 -5570407.962 11444208.548 22129751.482 10 0 60585 35100.00000 0 -7027619.639 9093886.992 22797266.486 10 0 60585 36000.00000 0 -8683289.057 6810907.902 23023221.218 10 0 60585 36900.00000 0 -10499782.384 4653357.244 22803298.861 10 0 60585 37800.00000 0 -12429891.290 2671834.784 22141788.413 10 0 60585 38700.00000 0 -14418647.155 907560.095 21051500.370 10 0 60585 39600.00000 0 -16405474.384 -609120.203 19553521.691 10 0 60585 40500.00000 0 -18326594.687 -1859763.527 17676814.348 10 0 60585 41400.00000 0 -20117583.722 -2838359.186 15457664.405 10 0 60585 42300.00000 0 -21715974.913 -3551331.941 12938991.207 10 0 60585 43200.00000 0 -23063802.927 -4017021.793 10169528.769 10 0 60585 44100.00000 0 -24109981.375 -4264662.056 7202893.931 10 0 60585 45000.00000 0 -24812415.528 -4332898.655 4096558.142 10 0 60585 45900.00000 0 -25139761.468 -4267912.772 910741.862 10 0 60585 46800.00000 0 -25072757.294 -4121225.796 -2292747.713 10 0 60585 47700.00000 0 -24605069.545 -3947279.093 -5451713.356 10 0 60585 48600.00000 0 -23743618.033 -3800890.978 -8504775.754 10 0 60585 49500.00000 0 -22508364.048 -3734698.795 -11392569.008 10 0 60585 50400.00000 0 -20931569.396 -3796694.986 -14058899.935 10 0 60585 51300.00000 0 -19056556.048 -4027962.426 -16451848.050 10 0 60585 52200.00000 0 -16936017.288 -4460706.091 -18524784.131 10 0 60585 53100.00000 0 -14629950.309 -5116665.816 -20237286.855 10 0 60585 54000.00000 0 -12203296.215 -6005978.893 -21555939.009 10 0 60585 54900.00000 0 -9723385.830 -7126542.278 -22454987.187 10 0 60585 55800.00000 0 -7257298.017 -8463903.068 -22916851.590 10 0 60585 56700.00000 0 -4869240.872 -9991683.483 -22932475.540 10 0 60585 57600.00000 0 -2618065.245 -11672523.945 -22501507.490 10 0 60585 58500.00000 0 -555014.508 -13459505.712 -21632311.613 10 0 60585 59400.00000 0 1278195.538 -15297994.142 -20341806.479 10 0 60585 60300.00000 0 2850886.671 -17127825.601 -18655134.736 10 0 60585 61200.00000 0 4144455.570 -18885746.264 -16605170.142 10 0 60585 62100.00000 0 5152895.931 -20508000.147 -14231871.645 10 0 60585 63000.00000 0 5882784.772 -21932957.214 -11581497.337 10 0 60585 63900.00000 0 6352735.084 -23103670.495 -8705694.127 10 0 60585 64800.00000 0 6592339.762 -23970254.128 -5660481.586 10 0 60585 65700.00000 0 6640653.374 -24491981.864 -2505150.636 10 0 60585 66600.00000 0 6544277.963 -24639017.459 698900.372 10 0 60585 67500.00000 0 6355135.799 -24393704.252 3889368.499 10 0 60585 68400.00000 0 6128025.075 -23751360.029 7004263.572 10 0 60585 69300.00000 0 5918063.427 -22720544.436 9983115.571 10 0 60585 70200.00000 0 5778128.488 -21322788.593 12768148.077 10 0 60585 71100.00000 0 5756404.306 -19591799.217 15305394.934 10 0 60585 72000.00000 0 5894137.423 -17572171.547 17545738.721 10 0 60585 72900.00000 0 6223697.137 -15317665.652 19445851.646 10 0 60585 73800.00000 0 6767021.203 -12889118.475 20969021.746 10 0 60585 74700.00000 0 7534511.815 -10352078.693 22085849.678 10 0 60585 75600.00000 0 8524427.738 -7774262.312 22774804.107 10 0 60585 76500.00000 0 9722797.769 -5222933.786 23022626.332 10 0 60585 77400.00000 0 11103859.170 -2762320.062 22824577.562 10 0 60585 78300.00000 0 12631003.103 -451163.141 22184524.957 10 0 60585 79200.00000 0 14258188.368 1659489.158 21114865.262 10 0 60585 80100.00000 0 15931765.511 3528164.418 19636287.559 10 0 60585 81000.00000 0 17592636.497 5124442.489 17777379.337 10 0 60585 81900.00000 0 19178661.286 6429968.109 15574082.665 10 0 60585 82800.00000 0 20627212.147 7438958.322 13069009.948 10 0 60585 83700.00000 0 21877770.183 8158184.360 10310631.222 10 0 60585 84600.00000 0 22874456.312 8606429.273 7352347.447 10 0 60585 85500.00000 0 23568391.109 8813444.215 4251466.570 99